Powrót do katalogu

USA 40 R/B DEB

AktywnyHEO
NORAD 23385·DEBRIS·🇺🇸 United States

Wystrzelony Aug 8, 1989 z Cape Canaveral Space Force Station

Loading…

Następne Przeloty (najbliższe 24 godziny)

TLE

ŚwieżeSource: Space-Track

Epoka: Sep 14, 2026, 05:19 UTC

1 23385U 89061BH  26257.22221276  .00002901  00000-0  26892-2 0  9992
2 23385  57.0071 338.0794 3052818 192.5344 157.8531  8.74416994237477

Śledź USA 40 R/B DEB w czasie rzeczywistym z AllMySat

Download on the App Store